Time,TemperatureF,DewpointF,PressureIn,WindDirection,WindDirectionDegrees,WindSpeedMPH,WindSpeedGustMPH,Humidity,HourlyPrecipIn,Conditions,Clouds,dailyrainin,SoftwareType,DateUTC
2013-05-28 00:31:00,49.6,47.3,29.70,ESE,113,2.5,2.5,92,0.00,,,0.00,WUHU21623XXSP,2013-05-28 05:31:00,
2013-05-28 01:31:00,49.6,47.3,29.67,ENE,68,0.0,0.0,92,0.00,,,0.00,WUHU21623XXSP,2013-05-28 06:31:00,
2013-05-28 02:31:00,49.8,47.5,29.65,ESE,113,0.0,0.0,92,0.00,,,0.00,WUHU21623XXSP,2013-05-28 07:31:00,
2013-05-28 03:31:00,49.8,47.5,29.65,East,90,0.0,0.0,92,0.00,,,0.00,WUHU21623XXSP,2013-05-28 08:31:00,
2013-05-28 04:31:00,49.6,47.3,29.65,NNE,23,0.0,0.0,92,0.00,,,0.02,WUHU21623XXSP,2013-05-28 09:31:00,
2013-05-28 05:31:00,49.6,47.6,29.61,NW,315,1.1,1.1,93,0.00,,,0.14,WUHU21623XXSP,2013-05-28 10:31:00,
2013-05-28 06:03:00,49.6,47.6,29.61,ENE,67,0.9,0.9,93,0.00,,,0.22,WUHU21623XXSP,2013-05-28 11:03:00,
2013-05-28 06:09:00,49.6,47.6,29.61,ESE,112,2.5,2.5,93,0.00,,,0.22,WUHU21623XXSP,2013-05-28 11:09:00,
2013-05-28 06:14:00,49.5,47.5,29.61,East,90,1.8,2.5,93,0.00,,,0.22,WUHU21623XXSP,2013-05-28 11:14:00,
2013-05-28 06:19:00,49.3,47.3,29.61,NE,45,3.6,3.6,93,0.00,,,0.22,WUHU21623XXSP,2013-05-28 11:19:00,
2013-05-28 06:24:00,49.3,47.3,29.61,NE,45,3.6,3.6,93,0.00,,,0.22,WUHU21623XXSP,2013-05-28 11:24:00,
2013-05-28 06:29:00,49.3,47.3,29.61,East,90,0.0,3.6,93,0.00,,,0.22,WUHU21623XXSP,2013-05-28 11:29:00,
2013-05-28 06:34:00,49.3,47.3,29.61,NW,315,0.0,0.0,93,0.00,,,0.22,WUHU21623XXSP,2013-05-28 11:34:00,
2013-05-28 06:39:00,49.3,47.3,29.61,NE,45,0.0,0.0,93,0.00,,,0.22,WUHU21623XXSP,2013-05-28 11:39:00,
2013-05-28 06:44:00,49.3,47.3,29.63,East,90,0.0,0.0,93,0.02,,,0.24,WUHU21623XXSP,2013-05-28 11:44:00,
2013-05-28 06:49:00,49.1,47.1,29.61,ENE,67,0.0,0.0,93,0.04,,,0.24,WUHU21623XXSP,2013-05-28 11:49:00,
2013-05-28 06:54:00,49.1,47.1,29.61,NE,45,0.0,0.0,93,0.04,,,0.26,WUHU21623XXSP,2013-05-28 11:54:00,
2013-05-28 06:59:00,48.9,47.0,29.61,NE,45,0.0,0.0,93,0.04,,,0.26,WUHU21623XXSP,2013-05-28 11:59:00,
2013-05-28 07:04:00,48.9,47.0,29.61,ESE,112,0.0,0.0,93,0.06,,,0.26,WUHU21623XXSP,2013-05-28 12:04:00,
2013-05-28 07:09:00,48.9,47.0,29.62,East,90,4.5,4.5,93,0.08,,,0.28,WUHU21623XXSP,2013-05-28 12:09:00,
2013-05-28 07:14:00,48.9,47.0,29.58,NW,315,0.0,4.5,93,0.08,,,0.31,WUHU21623XXSP,2013-05-28 12:14:00,
2013-05-28 07:19:00,48.9,47.0,29.58,NW,315,4.0,6.9,93,0.10,,,0.33,WUHU21623XXSP,2013-05-28 12:19:00,
2013-05-28 07:24:00,48.7,46.8,29.61,WNW,292,1.1,6.9,93,0.14,,,0.35,WUHU21623XXSP,2013-05-28 12:24:00,
2013-05-28 07:29:00,48.9,46.8,29.60,ENE,67,0.0,1.1,93,0.18,,,0.39,WUHU21623XXSP,2013-05-28 12:29:00,
2013-05-28 07:34:00,48.9,47.0,29.62,ESE,112,2.5,2.5,93,0.22,,,0.45,WUHU21623XXSP,2013-05-28 12:34:00,
2013-05-28 07:39:00,48.9,47.0,29.59,WNW,292,2.0,2.5,93,0.29,,,0.45,WUHU21623XXSP,2013-05-28 12:39:00,
2013-05-28 07:44:00,48.9,47.0,29.60,East,90,0.0,2.7,93,0.31,,,0.55,WUHU21623XXSP,2013-05-28 12:44:00,
2013-05-28 07:49:00,48.9,47.0,29.62,SE,135,1.6,2.7,93,0.29,,,0.55,WUHU21623XXSP,2013-05-28 12:49:00,
2013-05-28 07:54:00,49.1,47.1,29.62,East,90,0.0,1.6,93,0.31,,,0.55,WUHU21623XXSP,2013-05-28 12:54:00,
2013-05-28 07:59:00,49.1,47.1,29.60,NW,315,2.7,2.7,93,0.43,,,0.59,WUHU21623XXSP,2013-05-28 12:59:00,
2013-05-28 08:04:00,49.1,47.1,29.60,NW,315,0.0,2.7,93,0.39,,,0.69,WUHU21623XXSP,2013-05-28 13:04:00,
2013-05-28 08:07:00,49.1,47.1,29.59,NW,315,0.0,4.0,93,0.43,,,0.73,WUHU21623XXSP,2013-05-28 13:07:00,
2013-05-28 08:31:00,49.8,47.8,29.59,East,90,0.0,0.0,93,0.28,,,0.73,WUHU21623XXSP,2013-05-28 13:31:00,
2013-05-28 09:31:00,51.8,49.8,29.57,NNW,338,0.0,0.0,93,0.00,,,0.75,WUHU21623XXSP,2013-05-28 14:31:00,
2013-05-28 10:31:00,53.4,51.7,29.54,East,90,0.0,0.0,94,0.00,,,0.79,WUHU21623XXSP,2013-05-28 15:31:00,
2013-05-28 11:31:00,62.8,61.0,29.56,SE,135,7.2,7.2,94,0.00,,,0.79,WUHU21623XXSP,2013-05-28 16:31:00,
2013-05-28 12:31:00,71.4,66.7,29.57,SE,135,7.8,7.8,85,0.00,,,0.79,WUHU21623XXSP,2013-05-28 17:31:00,
2013-05-28 13:31:00,74.3,66.8,29.57,WSW,248,0.0,0.0,77,0.00,,,0.79,WUHU21623XXSP,2013-05-28 18:31:00,
2013-05-28 14:31:00,73.8,66.6,29.56,ESE,113,0.0,0.0,78,0.00,,,0.79,WUHU21623XXSP,2013-05-28 19:31:00,
2013-05-28 15:31:00,72.3,65.5,29.56,ESE,113,6.5,6.5,79,0.00,,,0.79,WUHU21623XXSP,2013-05-28 20:31:00,
2013-05-28 15:54:00,72.7,65.8,29.56,ESE,112,4.5,4.5,79,0.00,,,0.79,WUHU21623XXSP,2013-05-28 20:54:00,
2013-05-28 15:59:00,72.3,65.8,29.56,SE,135,4.7,6.3,80,0.00,,,0.79,WUHU21623XXSP,2013-05-28 20:59:00,
2013-05-28 16:04:00,72.0,65.5,29.56,SE,135,2.0,6.3,80,0.00,,,0.79,WUHU21623XXSP,2013-05-28 21:04:00,
2013-05-28 16:09:00,71.4,65.3,29.56,WSW,247,0.0,2.0,81,0.00,,,0.79,WUHU21623XXSP,2013-05-28 21:09:00,
2013-05-28 16:14:00,70.9,65.1,29.56,East,90,3.6,3.8,82,0.00,,,0.79,WUHU21623XXSP,2013-05-28 21:14:00,
2013-05-28 16:19:00,70.3,64.5,29.56,WNW,292,3.1,3.8,82,0.00,,,0.79,WUHU21623XXSP,2013-05-28 21:19:00,
2013-05-28 16:24:00,69.6,64.2,29.56,SW,225,0.0,3.4,83,0.00,,,0.79,WUHU21623XXSP,2013-05-28 21:24:00,
2013-05-28 16:29:00,69.4,64.3,29.56,West,270,0.0,2.9,84,0.00,,,0.79,WUHU21623XXSP,2013-05-28 21:29:00,
2013-05-28 16:34:00,69.3,64.5,29.56,West,270,0.0,2.9,85,0.00,,,0.79,WUHU21623XXSP,2013-05-28 21:34:00,
2013-05-28 16:39:00,69.1,64.7,29.56,WSW,247,0.0,4.0,86,0.00,,,0.79,WUHU21623XXSP,2013-05-28 21:39:00,
2013-05-28 16:44:00,68.9,64.5,29.55,SW,225,0.0,4.0,86,0.00,,,0.79,WUHU21623XXSP,2013-05-28 21:44:00,
2013-05-28 16:50:00,68.7,64.3,29.55,SW,225,0.0,0.0,86,0.00,,,0.79,WUHU21623XXSP,2013-05-28 21:50:00,
2013-05-28 16:55:00,68.4,64.3,29.56,West,270,0.0,0.0,87,0.00,,,0.79,WUHU21623XXSP,2013-05-28 21:55:00,
2013-05-28 17:00:00,68.4,64.3,29.55,ESE,112,1.1,1.1,87,0.00,,,0.79,WUHU21623XXSP,2013-05-28 22:00:00,
2013-05-28 17:05:00,68.4,64.3,29.55,SSE,157,0.0,1.1,87,0.00,,,0.79,WUHU21623XXSP,2013-05-28 22:05:00,
2013-05-28 17:10:00,68.4,64.6,29.56,WNW,292,0.0,2.2,88,0.00,,,0.79,WUHU21623XXSP,2013-05-28 22:10:00,
2013-05-28 17:15:00,68.4,64.6,29.55,WNW,292,0.0,2.2,88,0.00,,,0.79,WUHU21623XXSP,2013-05-28 22:15:00,
2013-05-28 17:20:00,68.4,65.0,29.55,West,270,0.0,0.0,89,0.00,,,0.79,WUHU21623XXSP,2013-05-28 22:20:00,
2013-05-28 17:25:00,68.7,65.3,29.56,WSW,247,0.0,1.8,89,0.00,,,0.79,WUHU21623XXSP,2013-05-28 22:25:00,
2013-05-28 17:30:00,68.7,65.3,29.56,SW,225,0.0,1.8,89,0.00,,,0.79,WUHU21623XXSP,2013-05-28 22:30:00,
2013-05-28 17:35:00,68.7,65.3,29.56,SW,225,0.0,0.0,89,0.00,,,0.79,WUHU21623XXSP,2013-05-28 22:35:00,
2013-05-28 17:40:00,69.3,65.9,29.55,SSW,202,0.0,0.0,89,0.00,,,0.79,WUHU21623XXSP,2013-05-28 22:40:00,
2013-05-28 17:45:00,69.6,66.2,29.55,SSW,202,3.4,3.4,89,0.00,,,0.79,WUHU21623XXSP,2013-05-28 22:45:00,
2013-05-28 17:50:00,70.0,66.2,29.55,North,0,0.0,3.4,88,0.00,,,0.79,WUHU21623XXSP,2013-05-28 22:50:00,
2013-05-28 17:55:00,69.8,66.1,29.55,SE,135,0.0,0.0,88,0.00,,,0.79,WUHU21623XXSP,2013-05-28 22:55:00,
2013-05-28 18:00:00,69.6,65.5,29.55,SW,225,0.0,0.7,87,0.00,,,0.79,WUHU21623XXSP,2013-05-28 23:00:00,
2013-05-28 18:05:00,69.4,65.4,29.55,West,270,0.0,0.7,87,0.00,,,0.79,WUHU21623XXSP,2013-05-28 23:05:00,
2013-05-28 18:10:00,69.3,65.2,29.55,NW,315,0.0,0.0,87,0.00,,,0.79,WUHU21623XXSP,2013-05-28 23:10:00,
2013-05-28 18:15:00,69.3,65.5,29.55,NW,315,0.0,0.0,88,0.00,,,0.79,WUHU21623XXSP,2013-05-28 23:15:00,
2013-05-28 18:20:00,69.3,65.5,29.55,ESE,112,0.0,0.0,88,0.00,,,0.79,WUHU21623XXSP,2013-05-28 23:20:00,
2013-05-28 18:25:00,69.4,65.7,29.55,ESE,112,0.0,0.0,88,0.00,,,0.79,WUHU21623XXSP,2013-05-28 23:25:00,
2013-05-28 18:30:00,69.4,65.7,29.55,SW,225,0.0,0.0,88,0.00,,,0.79,WUHU21623XXSP,2013-05-28 23:30:00,
2013-05-28 18:35:00,69.1,65.3,29.55,SW,225,0.0,0.0,88,0.00,,,0.79,WUHU21623XXSP,2013-05-28 23:35:00,
2013-05-28 18:40:00,69.1,65.3,29.56,SW,225,0.0,0.0,88,0.00,,,0.79,WUHU21623XXSP,2013-05-28 23:40:00,
2013-05-28 18:45:00,69.4,65.7,29.55,West,270,2.2,2.2,88,0.00,,,0.79,WUHU21623XXSP,2013-05-28 23:45:00,
2013-05-28 18:50:00,69.8,66.4,29.55,SSW,202,0.0,2.2,89,0.00,,,0.79,WUHU21623XXSP,2013-05-28 23:50:00,
2013-05-28 18:55:00,70.0,66.2,29.54,WSW,247,0.0,0.0,88,0.00,,,0.79,WUHU21623XXSP,2013-05-28 23:55:00,
2013-05-28 19:00:00,69.8,66.1,29.54,WSW,247,0.0,0.0,88,0.00,,,0.79,WUHU21623XXSP,2013-05-29 00:00:00,
2013-05-28 19:05:00,70.0,66.2,29.53,SW,225,0.0,0.0,88,0.00,,,0.79,WUHU21623XXSP,2013-05-29 00:05:00,
2013-05-28 19:10:00,69.8,65.7,29.53,WSW,247,0.0,0.0,87,0.00,,,0.79,WUHU21623XXSP,2013-05-29 00:10:00,
2013-05-28 19:15:00,69.6,65.5,29.53,West,270,1.3,1.3,87,0.00,,,0.79,WUHU21623XXSP,2013-05-29 00:15:00,
2013-05-28 19:20:00,69.4,65.4,29.53,West,270,0.0,1.3,87,0.00,,,0.79,WUHU21623XXSP,2013-05-29 00:20:00,
2013-05-28 19:25:00,69.3,65.2,29.53,West,270,0.0,0.0,87,0.00,,,0.79,WUHU21623XXSP,2013-05-29 00:25:00,
2013-05-28 19:30:00,69.1,65.0,29.53,West,270,0.0,0.0,87,0.00,,,0.79,WUHU21623XXSP,2013-05-29 00:30:00,
2013-05-28 19:35:00,68.9,64.8,29.53,WSW,247,0.0,0.0,87,0.00,,,0.79,WUHU21623XXSP,2013-05-29 00:35:00,
2013-05-28 19:40:00,68.9,64.8,29.54,WSW,247,0.0,0.0,87,0.00,,,0.79,WUHU21623XXSP,2013-05-29 00:40:00,
2013-05-28 19:46:00,68.7,64.7,29.55,WSW,247,0.0,0.0,87,0.00,,,0.79,WUHU21623XXSP,2013-05-29 00:46:00,
2013-05-28 19:51:00,68.5,64.5,29.53,WSW,247,0.0,0.0,87,0.00,,,0.79,WUHU21623XXSP,2013-05-29 00:51:00,
2013-05-28 19:56:00,68.5,64.5,29.54,WSW,247,0.0,0.0,87,0.00,,,0.79,WUHU21623XXSP,2013-05-29 00:56:00,
2013-05-28 20:01:00,68.2,64.5,29.53,ENE,67,0.0,0.0,88,0.00,,,0.79,WUHU21623XXSP,2013-05-29 01:01:00,
2013-05-28 20:06:00,68.2,64.5,29.53,East,90,0.0,0.0,88,0.00,,,0.79,WUHU21623XXSP,2013-05-29 01:06:00,
2013-05-28 20:11:00,67.8,64.1,29.53,East,90,0.0,0.0,88,0.00,,,0.79,WUHU21623XXSP,2013-05-29 01:11:00,
2013-05-28 20:16:00,67.8,64.1,29.53,East,90,0.0,0.0,88,0.00,,,0.79,WUHU21623XXSP,2013-05-29 01:16:00,
2013-05-28 20:21:00,67.5,63.8,29.53,East,90,0.0,0.0,88,0.00,,,0.79,WUHU21623XXSP,2013-05-29 01:21:00,
2013-05-28 20:26:00,67.3,63.6,29.53,East,90,0.0,0.0,88,0.00,,,0.79,WUHU21623XXSP,2013-05-29 01:26:00,
2013-05-28 20:31:00,67.1,63.4,29.53,East,90,0.0,0.0,88,0.00,,,0.79,WUHU21623XXSP,2013-05-29 01:31:00,
2013-05-28 20:36:00,66.9,63.5,29.52,East,90,0.0,0.0,89,0.00,,,0.79,WUHU21623XXSP,2013-05-29 01:36:00,
2013-05-28 20:41:00,66.9,63.5,29.52,SE,135,0.0,0.0,89,0.00,,,0.79,WUHU21623XXSP,2013-05-29 01:41:00,
2013-05-28 21:31:00,65.7,62.7,29.56,WSW,248,0.0,0.0,90,0.00,,,0.79,WUHU21623XXSP,2013-05-29 02:31:00,
2013-05-28 22:31:00,65.1,62.4,29.57,ESE,113,0.0,0.0,91,0.00,,,0.79,WUHU21623XXSP,2013-05-29 03:31:00,
2013-05-28 22:36:00,65.1,62.5,29.59,SE,135,0.0,0.0,91,0.00,,,0.79,WUHU21623XXSP,2013-05-29 03:36:00,
2013-05-28 22:41:00,65.1,62.5,29.59,SE,135,0.0,0.0,91,0.00,,,0.79,WUHU21623XXSP,2013-05-29 03:41:00,
2013-05-28 22:46:00,65.1,62.5,29.58,ESE,112,0.0,0.0,91,0.00,,,0.79,WUHU21623XXSP,2013-05-29 03:46:00,
2013-05-28 22:51:00,65.1,62.5,29.58,NE,45,0.0,0.0,91,0.00,,,0.79,WUHU21623XXSP,2013-05-29 03:51:00,
2013-05-28 22:56:00,64.4,61.8,29.59,WNW,292,1.8,1.8,91,0.00,,,0.79,WUHU21623XXSP,2013-05-29 03:56:00,
2013-05-28 23:01:00,63.5,60.9,29.59,NNE,22,0.0,2.5,91,0.00,,,0.79,WUHU21623XXSP,2013-05-29 04:01:00,
2013-05-28 23:06:00,63.1,60.7,29.60,ESE,112,0.0,2.5,91,0.00,,,0.79,WUHU21623XXSP,2013-05-29 04:06:00,
2013-05-28 23:11:00,62.8,60.4,29.60,ESE,112,3.4,3.4,91,0.00,,,0.79,WUHU21623XXSP,2013-05-29 04:11:00,
2013-05-28 23:16:00,62.2,59.6,29.60,ESE,112,1.3,3.4,91,0.00,,,0.79,WUHU21623XXSP,2013-05-29 04:16:00,
2013-05-28 23:21:00,61.9,59.5,29.60,NE,45,0.0,2.0,91,0.00,,,0.79,WUHU21623XXSP,2013-05-29 04:21:00,
2013-05-28 23:26:00,61.3,58.7,29.60,NNW,337,0.0,0.0,91,0.00,,,0.79,WUHU21623XXSP,2013-05-29 04:26:00,
2013-05-28 23:31:00,61.0,58.6,29.59,ENE,67,0.0,0.0,91,0.00,,,0.79,WUHU21623XXSP,2013-05-29 04:31:00,
2013-05-28 23:36:00,60.6,58.0,29.59,ESE,112,0.0,0.0,91,0.00,,,0.79,WUHU21623XXSP,2013-05-29 04:36:00,
2013-05-28 23:41:00,60.6,58.0,29.60,NE,45,0.0,0.0,91,0.00,,,0.79,WUHU21623XXSP,2013-05-29 04:41:00,
2013-05-28 23:46:00,60.4,57.8,29.60,NE,45,0.0,0.0,91,0.00,,,0.79,WUHU21623XXSP,2013-05-29 04:46:00,
2013-05-28 23:51:00,60.4,57.8,29.60,ENE,67,0.0,0.0,91,0.00,,,0.79,WUHU21623XXSP,2013-05-29 04:51:00,
2013-05-28 23:56:00,60.3,57.7,29.60,North,0,0.0,0.0,91,0.00,,,0.79,WUHU21623XXSP,2013-05-29 04:56:00,